| time (UTC) | temp F | wind direction | speed MPH | gust MPH | rain 1hr in | rain 24hr in | rain mn in | humidity % | barometer mb |
| 20260831230014 | 92 | 360 | 10.0 | 16.0 | 0.00 | 0.00 | 0.00 | 27 | 1006.9 |
| 20260831224514 | 92 | 182 | 11.0 | 22.0 | 0.00 | 0.00 | 0.00 | 27 | 1006.9 |
| 20260831223014 | 92 | 360 | 7.0 | 17.0 | 0.00 | 0.00 | 0.00 | 28 | 1007.0 |
| 20260831221515 | 92 | 165 | 11.0 | 21.0 | 0.00 | 0.00 | 0.00 | 27 | 1007.1 |
| 20260831220013 | 92 | 360 | 7.0 | 19.0 | 0.00 | 0.00 | 0.00 | 28 | 1007.1 |
| 20260831214512 | 92 | 360 | 11.0 | 19.0 | 0.00 | 0.00 | 0.00 | 28 | 1007.1 |
| 20260831213015 | 92 | 360 | 14.0 | 20.0 | 0.00 | 0.00 | 0.00 | 27 | 1007.3 |
| 20260831211511 | 92 | 167 | 12.0 | 20.0 | 0.00 | 0.00 | 0.00 | 28 | 1007.3 |
| 20260831210011 | 92 | 148 | 10.0 | 19.0 | 0.00 | 0.00 | 0.00 | 28 | 1007.5 |
| 20260831204509 | 92 | 360 | 11.0 | 17.0 | 0.00 | 0.00 | 0.00 | 28 | 1007.7 |
| 20260831203008 | 92 | 113 | 10.0 | 18.0 | 0.00 | 0.00 | 0.00 | 28 | 1007.9 |
| 20260831201515 | 93 | 136 | 14.0 | 18.0 | 0.00 | 0.00 | 0.00 | 27 | 1008.3 |
| 20260831200008 | 92 | 208 | 11.0 | 16.0 | 0.00 | 0.00 | 0.00 | 29 | 1008.5 |
| 20260831194504 | 92 | 360 | 10.0 | 17.0 | 0.00 | 0.00 | 0.00 | 29 | 1008.5 |
| 20260831193004 | 92 | 360 | 9.0 | 17.0 | 0.00 | 0.00 | 0.00 | 31 | 1008.7 |
| 20260831191502 | 91 | 138 | 12.0 | 19.0 | 0.00 | 0.00 | 0.00 | 32 | 1008.8 |
| 20260831190107 | 91 | 236 | 10.0 | 18.0 | 0.00 | 0.00 | 0.00 | 31 | 1008.9 |
| 20260831184559 | 91 | 212 | 14.0 | 19.0 | 0.00 | 0.00 | 0.00 | 33 | 1009.1 |
| 20260831183106 | 91 | 180 | 8.0 | 17.0 | 0.00 | 0.00 | 0.00 | 34 | 1009.3 |
| 20260831181554 | 91 | 180 | 9.0 | 17.0 | 0.00 | 0.00 | 0.00 | 34 | 1009.4 |
| 20260831180110 | 89 | 175 | 12.0 | 18.0 | 0.00 | 0.00 | 0.00 | 36 | 1009.6 |
| 20260831174552 | 88 | 140 | 11.0 | 17.0 | 0.00 | 0.00 | 0.00 | 38 | 1009.7 |
| 20260831173048 | 87 | 180 | 9.0 | 18.0 | 0.00 | 0.00 | 0.00 | 40 | 1009.9 |
| 20260831171547 | 86 | 360 | 13.0 | 17.0 | 0.00 | 0.00 | 0.00 | 41 | 1010.0 |
| 20260831170044 | 86 | 250 | 12.0 | 19.0 | 0.00 | 0.00 | 0.00 | 43 | 1010.2 |
| 20260831164546 | 84 | 199 | 15.0 | 21.0 | 0.00 | 0.00 | 0.00 | 44 | 1010.4 |
| 20260831163038 | 84 | 212 | 14.0 | 22.0 | 0.00 | 0.00 | 0.00 | 45 | 1010.4 |
| 20260831161536 | 83 | 243 | 16.0 | 22.0 | 0.00 | 0.00 | 0.00 | 46 | 1010.2 |
| 20260831160031 | 82 | 213 | 18.0 | 24.0 | 0.00 | 0.00 | 0.00 | 47 | 1010.2 |
| 20260831154533 | 81 | 200 | 18.0 | 26.0 | 0.00 | 0.00 | 0.00 | 48 | 1010.2 |
| 20260831153027 | 81 | 232 | 16.0 | 26.0 | 0.00 | 0.00 | 0.00 | 48 | 1010.2 |
| 20260831151524 | 80 | 218 | 17.0 | 21.0 | 0.00 | 0.00 | 0.00 | 49 | 1010.1 |
| 20260831150024 | 80 | 221 | 13.0 | 19.0 | 0.00 | 0.00 | 0.00 | 49 | 1010.2 |
| 20260831144523 | 78 | 198 | 10.0 | 17.0 | 0.00 | 0.00 | 0.00 | 50 | 1010.1 |
| 20260831143020 | 78 | 177 | 9.0 | 14.0 | 0.00 | 0.00 | 0.00 | 50 | 1010.1 |
| 20260831141518 | 78 | 202 | 8.0 | 12.0 | 0.00 | 0.00 | 0.00 | 50 | 1010.1 |
| 20260831140015 | 77 | 207 | 7.0 | 12.0 | 0.00 | 0.00 | 0.00 | 51 | 1010.0 |
| 20260831134514 | 76 | 219 | 6.0 | 10.0 | 0.00 | 0.00 | 0.00 | 53 | 1009.8 |
| 20260831133026 | 74 | 207 | 3.0 | 7.0 | 0.00 | 0.00 | 0.00 | 56 | 1009.6 |
| 20260831131512 | 73 | 208 | 4.0 | 9.0 | 0.00 | 0.00 | 0.00 | 57 | 1009.4 |
| 20260831130009 | 72 | 220 | 7.0 | 9.0 | 0.00 | 0.00 | 0.00 | 57 | 1009.3 |
| 20260831124508 | 72 | 239 | 2.0 | 7.0 | 0.00 | 0.00 | 0.00 | 58 | 1009.1 |
| 20260831123013 | 71 | 316 | 4.0 | 6.0 | 0.00 | 0.00 | 0.00 | 59 | 1008.9 |
| 20260831121503 | 71 | 254 | 6.0 | 13.0 | 0.00 | 0.00 | 0.00 | 58 | 1008.3 |
| 20260831120001 | 72 | 248 | 11.0 | 15.0 | 0.00 | 0.00 | 0.00 | 57 | 1008.0 |
| 20260831114600 | 72 | 221 | 11.0 | 15.0 | 0.00 | 0.00 | 0.00 | 56 | 1007.9 |
| 20260831113102 | 73 | 214 | 11.0 | 16.0 | 0.00 | 0.00 | 0.00 | 55 | 1007.8 |
| 20260831111558 | 72 | 212 | 10.0 | 17.0 | 0.00 | 0.00 | 0.00 | 56 | 1007.6 |
| 20260831110059 | 72 | 211 | 11.0 | 20.0 | 0.00 | 0.00 | 0.00 | 56 | 1007.6 |
| 20260831104607 | 71 | 212 | 12.0 | 15.0 | 0.00 | 0.00 | 0.00 | 57 | 1007.6 |
| 20260831103053 | 71 | 200 | 12.0 | 15.0 | 0.00 | 0.00 | 0.00 | 55 | 1007.7 |
| 20260831101549 | 72 | 215 | 9.0 | 15.0 | 0.00 | 0.00 | 0.00 | 54 | 1007.6 |
| 20260831094546 | 73 | 188 | 13.0 | 19.0 | 0.00 | 0.00 | 0.00 | 51 | 1007.4 |
| 20260831093047 | 74 | 215 | 13.0 | 19.0 | 0.00 | 0.00 | 0.00 | 50 | 1007.2 |
| 20260831091543 | 73 | 196 | 13.0 | 17.0 | 0.00 | 0.00 | 0.00 | 50 | 1007.2 |
| 20260831090043 | 73 | 195 | 12.0 | 17.0 | 0.00 | 0.00 | 0.00 | 51 | 1007.2 |
| 20260831084543 | 72 | 211 | 11.0 | 15.0 | 0.00 | 0.00 | 0.00 | 51 | 1007.2 |
| 20260831083043 | 73 | 214 | 14.0 | 18.0 | 0.00 | 0.00 | 0.00 | 50 | 1007.3 |
| 20260831081534 | 74 | 212 | 11.0 | 15.0 | 0.00 | 0.00 | 0.00 | 48 | 1007.1 |
| 20260831080051 | 75 | 187 | 13.0 | 19.0 | 0.00 | 0.00 | 0.00 | 46 | 1006.9 |
| 20260831074532 | 75 | 200 | 14.0 | 19.0 | 0.00 | 0.00 | 0.00 | 46 | 1006.9 |
| 20260831073033 | 75 | 207 | 13.0 | 18.0 | 0.00 | 0.00 | 0.00 | 47 | 1006.7 |
| 20260831071527 | 75 | 211 | 11.0 | 19.0 | 0.00 | 0.00 | 0.00 | 45 | 1006.7 |
| 20260831070029 | 75 | 182 | 10.0 | 18.0 | 0.00 | 0.00 | 0.00 | 46 | 1006.8 |
| 20260831064522 | 76 | 184 | 10.0 | 19.0 | 0.00 | 0.00 | 0.00 | 44 | 1006.8 |
| 20260831063022 | 76 | 184 | 9.0 | 15.0 | 0.00 | 0.00 | 0.00 | 45 | 1006.7 |
| 20260831061517 | 77 | 156 | 9.0 | 15.0 | 0.00 | 0.00 | 0.00 | 44 | 1006.6 |
| 20260831060014 | 77 | 187 | 9.0 | 17.0 | 0.00 | 0.00 | 0.00 | 43 | 1006.6 |
| 20260831054512 | 78 | 202 | 8.0 | 15.0 | 0.00 | 0.00 | 0.00 | 43 | 1006.6 |
| 20260831053008 | 79 | 179 | 10.0 | 17.0 | 0.00 | 0.00 | 0.00 | 42 | 1006.5 |
| 20260831051509 | 79 | 175 | 11.0 | 16.0 | 0.00 | 0.00 | 0.00 | 42 | 1006.4 |
| 20260831050003 | 80 | 207 | 10.0 | 16.0 | 0.00 | 0.00 | 0.00 | 42 | 1006.3 |
| 20260831044507 | 80 | 152 | 8.0 | 15.0 | 0.00 | 0.00 | 0.00 | 41 | 1006.2 |
| 20260831043004 | 81 | 172 | 9.0 | 19.0 | 0.00 | 0.00 | 0.00 | 40 | 1006.1 |
| 20260831041501 | 82 | 175 | 11.0 | 16.0 | 0.00 | 0.00 | 0.00 | 39 | 1006.1 |
| 20260831040101 | 82 | 153 | 10.0 | 20.0 | 0.00 | 0.00 | 0.00 | 39 | 1006.1 |
| 20260831034602 | 83 | 174 | 12.0 | 18.0 | 0.00 | 0.00 | 0.00 | 38 | 1006.0 |
| 20260831033102 | 83 | 171 | 11.0 | 15.0 | 0.00 | 0.00 | 0.00 | 37 | 1005.8 |
| 20260831031558 | 84 | 160 | 10.0 | 18.0 | 0.00 | 0.00 | 0.00 | 36 | 1005.7 |
| 20260831030106 | 85 | 145 | 11.0 | 19.0 | 0.00 | 0.00 | 0.00 | 35 | 1005.3 |
| 20260831024604 | 85 | 155 | 11.0 | 16.0 | 0.00 | 0.00 | 0.00 | 35 | 1005.1 |
| 20260831023057 | 86 | 164 | 9.0 | 18.0 | 0.00 | 0.00 | 0.00 | 34 | 1004.8 |
| 20260831021555 | 87 | 158 | 10.0 | 19.0 | 0.00 | 0.00 | 0.00 | 33 | 1004.7 |
| 20260831014606 | 88 | 162 | 9.0 | 17.0 | 0.00 | 0.00 | 0.00 | 32 | 1004.4 |
| 20260831013054 | 89 | 360 | 11.0 | 19.0 | 0.00 | 0.00 | 0.00 | 31 | 1004.2 |
| 20260831011608 | 90 | 161 | 10.0 | 21.0 | 0.00 | 0.00 | 0.00 | 29 | 1004.2 |
| 20260831010052 | 91 | 180 | 11.0 | 19.0 | 0.00 | 0.00 | 0.00 | 28 | 1004.0 |
| 20260831004552 | 93 | 166 | 11.0 | 20.0 | 0.00 | 0.00 | 0.00 | 27 | 1004.1 |
| 20260831003054 | 93 | 157 | 12.0 | 23.0 | 0.00 | 0.00 | 0.00 | 27 | 1004.0 |
| 20260831001601 | 94 | 151 | 10.0 | 20.0 | 0.00 | 0.00 | 0.00 | 26 | 1003.9 |
| 20260831000050 | 95 | 360 | 11.0 | 25.0 | 0.00 | 0.00 | 0.00 | 26 | 1003.9 |
| 20260830234549 | 95 | 127 | 12.0 | 24.0 | 0.00 | 0.00 | 0.00 | 25 | 1003.9 |
| 20260830233049 | 96 | 155 | 13.0 | 23.0 | 0.00 | 0.00 | 0.00 | 25 | 1003.9 |
| 20260830231548 | 96 | 163 | 14.0 | 22.0 | 0.00 | 0.00 | 0.00 | 25 | 1003.9 |